Find Starlink 32036

NORAD ID: 60141 Int'l Des: 2024-120 Owner: SPXS Country: US Constellation: starlink operational
LEOCIRCULAR

現在のビュー

3D地球を読み込み中...

About Starlink 32036

Starlink 32036 (NORAD 60141) is a starlink constellation satellite (v2 mini) launched Jun 27, 2024 by SPXS of US. It operates in LEO, CIRCULAR orbit with a mass of 730.00 kg.

Starlink 32036について

説明を読み込み中...

次回通過

Passes for default location (London). Set your location on the main map for personalized predictions.

高度履歴

Loading altitude history...

軌道要素

1 60141U 24120G 26171.38223034 -.00000395 00000-0 -57416-6 0 9991
2 60141 53.1592 202.5924 0000924 75.1538 284.9567 15.34385110112182
Epoch: Jun 20, 2026 • Age: 27 hours

現在のステータス

高度 463.1 km
速度 7.64 km/s
衛星直下点 23.16°N, 128.14°E
打ち上げ日 Jun 27, 2024
運用期間 1.9 years
タイプ internet

技術仕様

分類 Payload
質量 730.00 kg
乾燥質量 700.00 kg
総質量 730.00 kg
長さ 0.30 m
直径 4.10 m
スパン 29.00 m
形状 Box + pan
製造者 SPXS
バスタイプ Starlink V2M
フェーズステータス In Orbit
所有者/国 SPXS/US

Most Searched